Pocatello, ID

8:19 PM MST on February 22, 2017 (GMT -0700)
Pocatello Regional

Weather History for KPIH - January, 2014

Change the Weather History Date:

Thursday, January 30, 2014

  Actual Average Record
Temperature  
Mean Temperature 36 °F 25 °F  
Max Temperature 40 °F 34 °F 51 °F (1992)
Min Temperature 31 °F 17 °F -20 °F (1979)
Degree Days  
Heating Degree Days 29 40  
Month to date heating degree days 1076 1220  
Since 1 July heating degree days 4076 4205  
Cooling Degree Days 0 0  
Month to date cooling degree days 0 0  
Year to date cooling degree days 0 0  
Moisture  
Dew Point 27 °F    
Average Humidity 71    
Maximum Humidity 82    
Minimum Humidity 59    
Precipitation  
Precipitation 0.00 in 0.03 in 0.44 in (1963)
Month to date precipitation 0.63 0.96  
Year to date precipitation 0.63 0.96  
Snow  
Snow 0.00 in - - ()
Month to date snowfall 2.6  
Since 1 July snowfall 12.2  
Snow Depth 0.00 in    
Sea Level Pressure  
Sea Level Pressure 29.77 in    
Wind  
Wind Speed 21 mph (SW)    
Max Wind Speed 30 mph    
Max Gust Speed 36 mph    
Visibility 10 miles    
Events      
T = Trace of Precipitation, MM = Missing Value Source: NWS Daily Summary

Daily Weather History Graph

Daily Weather History Graph

Search for Another Location

Airport or City:

Trip Planner

Search our weather history database for the weather conditions in past years. The results will help you decide how hot, cold, wet, or windy it might be!

Date:

Astronomy

Jan. 30, 2014 Rise Set
Actual Time 7:47 AM MST 5:40 PM MST
Civil Twilight 7:16 AM MST 6:11 PM MST
Nautical Twilight 6:42 AM MST 6:45 PM MST
Astronomical Twilight 6:09 AM MST 7:18 PM MST
Moon 7:14 AM MST (1/30) 5:58 PM MST (1/30)
Length of Visible Light 10h 54m
Length of Day
9h 53m
Waning Crescent, 0% of the Moon is Illuminated
Jan 30
Waning Crescent
Jan 30
New
Feb 6
First Quarter
Feb 14
Full
Feb 22
Last Quarter

Hourly Weather History & Observations

Time (MST) Temp. Windchill Dew Point Humidity Pressure Visibility Wind Dir Wind Speed Gust Speed Precip Events Conditions
12:53 AM 36.0 °F 24.4 °F 30.0 °F 79% 29.73 in 10.0 mi WSW 23.0 mph - N/A   Clear
1:53 AM 37.0 °F 24.9 °F 28.9 °F 73% 29.72 in 10.0 mi WSW 27.6 mph 36.8 mph N/A   Clear
2:53 AM 36.0 °F 24.7 °F 30.0 °F 79% 29.71 in 10.0 mi WSW 21.9 mph 32.2 mph N/A   Clear
3:53 AM 35.1 °F 23.3 °F 28.0 °F 76% 29.71 in 10.0 mi WSW 23.0 mph 35.7 mph N/A   Clear
4:53 AM 35.1 °F 23.5 °F 28.0 °F 76% 29.72 in 10.0 mi WSW 21.9 mph - N/A   Clear
5:53 AM 35.1 °F 23.0 °F 27.0 °F 72% 29.73 in 10.0 mi WSW 24.2 mph 32.2 mph N/A   Clear
6:53 AM 34.0 °F 23.8 °F 27.0 °F 75% 29.75 in 10.0 mi SW 16.1 mph - N/A   Clear
7:53 AM 33.1 °F 21.5 °F 26.1 °F 75% 29.77 in 10.0 mi SW 19.6 mph - N/A   Partly Cloudy
8:53 AM 34.0 °F 24.2 °F 26.1 °F 73% 29.80 in 10.0 mi SSW 15.0 mph 24.2 mph N/A   Partly Cloudy
9:53 AM 35.1 °F 24.1 °F 26.1 °F 70% 29.80 in 10.0 mi SW 19.6 mph - N/A   Scattered Clouds
10:53 AM 36.0 °F 25.3 °F 28.0 °F 73% 29.81 in 10.0 mi SW 19.6 mph - N/A   Scattered Clouds
11:53 AM 37.9 °F 26.3 °F 27.0 °F 65% 29.80 in 10.0 mi SW 26.5 mph - N/A   Scattered Clouds
12:53 PM 39.0 °F 27.4 °F 28.0 °F 65% 29.78 in 10.0 mi SW 28.8 mph 32.2 mph N/A   Mostly Cloudy
1:53 PM 37.9 °F 26.8 °F 27.0 °F 65% 29.75 in 10.0 mi WSW 24.2 mph - N/A   Mostly Cloudy
2:53 PM 39.0 °F 28.5 °F 27.0 °F 62% 29.74 in 10.0 mi SW 23.0 mph 32.2 mph N/A   Mostly Cloudy
3:53 PM 37.9 °F 27.6 °F 26.1 °F 62% 29.75 in 10.0 mi SW 20.7 mph - N/A   Mostly Cloudy
4:53 PM 36.0 °F 25.0 °F 26.1 °F 67% 29.77 in 10.0 mi SW 20.7 mph - N/A   Mostly Cloudy
5:53 PM 35.1 °F 25.2 °F 27.0 °F 72% 29.79 in 10.0 mi SW 16.1 mph - N/A   Mostly Cloudy
6:53 PM 34.0 °F 24.6 °F 26.1 °F 73% 29.80 in 10.0 mi SW 13.8 mph - N/A   Mostly Cloudy
7:53 PM 34.0 °F 24.2 °F 24.1 °F 67% 29.80 in 10.0 mi SSW 15.0 mph - N/A   Overcast
8:53 PM 33.1 °F 21.9 °F 21.9 °F 64% 29.80 in 10.0 mi SSW 18.4 mph - N/A   Scattered Clouds
9:53 PM 30.9 °F 19.8 °F 23.0 °F 72% 29.81 in 10.0 mi SW 16.1 mph - N/A   Clear
10:53 PM 32.0 °F 20.1 °F 24.1 °F 73% 29.81 in 10.0 mi SW 19.6 mph - N/A   Clear
11:53 PM 32.0 °F 20.8 °F 24.1 °F 73% 29.81 in 10.0 mi SW 17.3 mph - N/A   Clear